When you browse on this site, cookies collect data to enhance your experience and personalize the content and advertising you see.
Visit our Privacy Policy to learn more. By continuing to use the site, you agree to this use of cookies and data.
  • In Hungary
  • List of Countries
  • For 7 days
  • Water Temperature
  • Weather Map
  • News
  • Weather Widgets
  • user-avatar
    Login

    Hourly Weather Wałbrzych

    Today, 12 December, Thursday

    Time Temperature Precipitation Wind Pressure Humidity
    00:00 -5°C° 0 mm 4 mps 710 mmHg 57%
    01:00 -5°C° 0 mm 4 mps 709 mmHg 59%
    02:00 -5°C° 0 mm 4 mps 709 mmHg 64%
    03:00 -5°C° 0 mm 4 mps 708 mmHg 69%
    04:00 -5°C° 0 mm 4 mps 708 mmHg 74%
    05:00 -7°C° 0 mm 4 mps 708 mmHg 77%
    06:00 -7°C° 0 mm 4 mps 708 mmHg 79%
    07:00 -6°C° 0 mm 3 mps 708 mmHg 82%
    08:00 -5°C° 0 mm 3 mps 708 mmHg 78%
    09:00 -5°C° 0 mm 3 mps 708 mmHg 75%
    10:00 -4°C° 0 mm 3 mps 708 mmHg 71%
    11:00 -2°C° 0 mm 3 mps 708 mmHg 69%
    12:00 -2°C° 0 mm 3 mps 708 mmHg 67%
    13:00 -1°C° 0 mm 3 mps 708 mmHg 65%
    14:00 -2°C° 0 mm 3 mps 708 mmHg 72%
    15:00 -3°C° 0 mm 2 mps 707 mmHg 78%
    16:00 -3°C° 0 mm 2 mps 707 mmHg 84%
    17:00 -3°C° 0 mm 2 mps 707 mmHg 85%
    18:00 -3°C° 0 mm 2 mps 707 mmHg 87%
    19:00 -3°C° 0 mm 2 mps 707 mmHg 88%
    20:00 -3°C° 0 mm 2 mps 706 mmHg 89%
    21:00 -3°C° 0 mm 2 mps 706 mmHg 89%
    22:00 -3°C° 0 mm 2 mps 705 mmHg 90%
    23:00 -3°C° 0 mm 2 mps 704 mmHg 90%

    Tomorrow, 13 December, Friday

    Time Temperature Precipitation Wind Pressure Humidity
    00:00 -3°C° 0 mm 2 mps 704 mmHg 91%
    01:00 -3°C° 0 mm 2 mps 703 mmHg 92%
    02:00 -3°C° 0 mm 2 mps 702 mmHg 92%
    03:00 -3°C° 0 mm 2 mps 701 mmHg 92%
    04:00 -3°C° 0 mm 2 mps 700 mmHg 92%
    05:00 -4°C° 0 mm 3 mps 699 mmHg 92%
    06:00 -4°C° 0 mm 3 mps 698 mmHg 92%
    07:00 -4°C° 0 mm 3 mps 698 mmHg 92%
    08:00 -3°C° 0 mm 4 mps 697 mmHg 89%
    09:00 -2°C° 0 mm 4 mps 697 mmHg 86%
    10:00 -1°C° 0 mm 4 mps 696 mmHg 83%
    11:00 -1°C° 0 mm 4 mps 696 mmHg 81%
    12:00 -1°C° 0 mm 4 mps 695 mmHg 79%
    13:00 0°C° 0 mm 5 mps 695 mmHg 77%
    14:00 -1°C° 0 mm 5 mps 695 mmHg 79%
    15:00 -2°C° 0 mm 5 mps 695 mmHg 81%
    16:00 -2°C° 0 mm 4 mps 695 mmHg 83%
    17:00 -2°C° 0 mm 4 mps 695 mmHg 83%
    18:00 -3°C° 0 mm 4 mps 696 mmHg 83%
    19:00 -3°C° 0 mm 4 mps 696 mmHg 83%
    20:00 -4°C° 0 mm 5 mps 697 mmHg 84%
    21:00 -2°C° 0 mm 5 mps 697 mmHg 85%
    22:00 -2°C° 0 mm 5 mps 698 mmHg 85%
    23:00 -2°C° 0 mm 5 mps 698 mmHg 84%

    Day after tomorrow, 14 December, Saturday

    Time Temperature Precipitation Wind Pressure Humidity
    00:00 -2°C° 0 mm 5 mps 699 mmHg 84%
    01:00 -2°C° 0 mm 5 mps 699 mmHg 83%
    02:00 -2°C° 0 mm 5 mps 699 mmHg 85%
    03:00 -2°C° 0 mm 5 mps 700 mmHg 87%
    04:00 -1°C° 0 mm 5 mps 700 mmHg 88%
    05:00 -1°C° 0 mm 5 mps 701 mmHg 90%
    06:00 -1°C° 0 mm 5 mps 702 mmHg 91%
    07:00 -1°C° 0 mm 5 mps 702 mmHg 92%
    08:00 -1°C° 0 mm 5 mps 703 mmHg 87%
    09:00 -1°C° 0 mm 5 mps 703 mmHg 83%
    10:00 -2°C° 0 mm 6 mps 703 mmHg 79%
    11:00 -1°C° 0 mm 6 mps 703 mmHg 76%
    12:00 -1°C° 0 mm 7 mps 703 mmHg 74%
    13:00 -1°C° 0 mm 8 mps 703 mmHg 71%
    14:00 -1°C° 0.4 mm 8 mps 703 mmHg 78%
    15:00 -1°C° 0.4 mm 8 mps 703 mmHg 84%
    16:00 -1°C° 0.4 mm 8 mps 703 mmHg 91%
    17:00 -1°C° 0.2 mm 7 mps 704 mmHg 89%
    18:00 +1°C° 0.2 mm 6 mps 705 mmHg 87%
    19:00 +1°C° 0.2 mm 5 mps 705 mmHg 85%
    20:00 0°C° 0 mm 5 mps 706 mmHg 86%
    21:00 0°C° 0 mm 5 mps 706 mmHg 86%
    22:00 0°C° 0 mm 5 mps 707 mmHg 86%
    23:00 0°C° 0.3 mm 5 mps 707 mmHg 87%

    15 December, Sunday

    Time Temperature Precipitation Wind Pressure Humidity
    00:00 0°C° 0.3 mm 5 mps 707 mmHg 88%
    01:00 +1°C° 0.3 mm 5 mps 707 mmHg 88%
    02:00 +2°C° 0.1 mm 5 mps 707 mmHg 89%
    03:00 +2°C° 0.1 mm 5 mps 707 mmHg 89%
    04:00 +3°C° 0.1 mm 6 mps 708 mmHg 90%
    05:00 +3°C° 0 mm 5 mps 708 mmHg 90%
    06:00 +3°C° 0 mm 5 mps 708 mmHg 90%
    07:00 +3°C° 0 mm 4 mps 708 mmHg 90%
    08:00 +3°C° 0.6 mm 5 mps 708 mmHg 90%
    09:00 +3°C° 0.6 mm 6 mps 708 mmHg 89%
    10:00 +3°C° 0.6 mm 7 mps 708 mmHg 88%
    11:00 +4°C° 0.6 mm 8 mps 708 mmHg 82%
    12:00 +5°C° 0.6 mm 8 mps 708 mmHg 77%
    13:00 +6°C° 0.6 mm 9 mps 708 mmHg 71%
    14:00 +6°C° 0.7 mm 9 mps 709 mmHg 75%
    15:00 +5°C° 0.7 mm 9 mps 710 mmHg 78%
    16:00 +5°C° 0.7 mm 9 mps 710 mmHg 81%
    17:00 +4°C° 0.1 mm 7 mps 711 mmHg 78%
    18:00 +3°C° 0.1 mm 6 mps 712 mmHg 74%
    19:00 +2°C° 0.1 mm 5 mps 713 mmHg 70%
    20:00 +1°C° 0 mm 5 mps 714 mmHg 71%
    21:00 +1°C° 0 mm 4 mps 714 mmHg 72%
    22:00 0°C° 0 mm 4 mps 715 mmHg 73%
    23:00 0°C° 0 mm 4 mps 716 mmHg 74%

    16 December, Monday

    Time Temperature Precipitation Wind Pressure Humidity
    00:00 -1°C° 0 mm 4 mps 716 mmHg 75%
    01:00 0°C° 0 mm 3 mps 716 mmHg 77%
    02:00 0°C° 0 mm 3 mps 717 mmHg 79%
    03:00 0°C° 0 mm 3 mps 717 mmHg 80%
    04:00 -1°C° 0 mm 2 mps 717 mmHg 82%
    05:00 0°C° 0 mm 3 mps 717 mmHg 81%
    06:00 0°C° 0 mm 3 mps 717 mmHg 80%
    07:00 -1°C° 0 mm 4 mps 717 mmHg 79%
    08:00 0°C° 0 mm 4 mps 717 mmHg 76%
    09:00 +1°C° 0 mm 4 mps 717 mmHg 74%
    10:00 +3°C° 0 mm 4 mps 717 mmHg 71%
    11:00 +4°C° 0 mm 4 mps 716 mmHg 73%
    12:00 +4°C° 0 mm 3 mps 716 mmHg 74%
    13:00 +4°C° 0 mm 3 mps 715 mmHg 75%
    14:00 +4°C° 0 mm 3 mps 715 mmHg 79%
    15:00 +3°C° 0 mm 3 mps 715 mmHg 83%
    16:00 +2°C° 0 mm 3 mps 715 mmHg 87%
    17:00 +2°C° 0 mm 3 mps 715 mmHg 88%
    18:00 +2°C° 0 mm 3 mps 715 mmHg 88%
    19:00 +1°C° 0 mm 3 mps 715 mmHg 89%
    20:00 +1°C° 0 mm 3 mps 715 mmHg 89%
    21:00 +1°C° 0 mm 3 mps 715 mmHg 90%
    22:00 +2°C° 0 mm 2 mps 715 mmHg 90%
    23:00 +2°C° 0 mm 2 mps 715 mmHg 90%

    17 December, Tuesday

    Time Temperature Precipitation Wind Pressure Humidity
    00:00 +3°C° 0 mm 2 mps 715 mmHg 91%
    01:00 +3°C° 0 mm 2 mps 715 mmHg 91%
    02:00 +3°C° 0 mm 2 mps 714 mmHg 92%
    03:00 +3°C° 0 mm 2 mps 714 mmHg 92%
    04:00 +3°C° 0 mm 2 mps 714 mmHg 92%
    05:00 +3°C° 0 mm 2 mps 714 mmHg 92%
    06:00 +3°C° 0 mm 2 mps 714 mmHg 92%
    07:00 +2°C° 0 mm 2 mps 714 mmHg 92%
    08:00 +3°C° 0 mm 2 mps 714 mmHg 91%
    09:00 +3°C° 0 mm 2 mps 714 mmHg 90%
    10:00 +3°C° 0 mm 3 mps 714 mmHg 89%
    11:00 +3°C° 0 mm 3 mps 714 mmHg 87%
    12:00 +4°C° 0 mm 3 mps 714 mmHg 85%
    13:00 +4°C° 0 mm 3 mps 714 mmHg 84%
    14:00 +5°C° 0 mm 2 mps 714 mmHg 85%
    15:00 +4°C° 0 mm 2 mps 714 mmHg 87%
    16:00 +4°C° 0 mm 2 mps 714 mmHg 89%
    17:00 +4°C° 0 mm 2 mps 714 mmHg 89%
    18:00 +3°C° 0 mm 2 mps 714 mmHg 89%
    19:00 +3°C° 0 mm 2 mps 714 mmHg 89%
    20:00 +3°C° 0 mm 2 mps 714 mmHg 88%
    21:00 +3°C° 0 mm 2 mps 714 mmHg 87%
    22:00 +3°C° 0 mm 2 mps 714 mmHg 86%
    23:00 +3°C° 0 mm 2 mps 715 mmHg 86%
    Show more